Wetterdaten: Woche 08.01.18 - 14.01.18 (KW2)
Datum Zeit Temp. 2m rel. Feuchte Luftdruck Regen Wind Richtung Sonne ET UV-Index Solar Taupunkt Ben
08.01.2018 00:00 3,3 C 84 % 1025,1 hPa 0,0 mm 0,5 km/h (0 Bft) O-NO 0,00 h 0,0 mm 0,0 UV-I 0 W/m 0,8 C 3,3 km/h (1 Bft)
08.01.2018 01:00 3,4 C 85 % 1024,9 hPa 0,0 mm 0,3 km/h (0 Bft) N 0,00 h 0,0 mm 0,0 UV-I 0 W/m 1,2 C 2,0 km/h (1 Bft)
08.01.2018 02:00 3,7 C 85 % 1024,5 hPa 0,0 mm 0,5 km/h (0 Bft) O-SO 0,00 h 0,0 mm 0,0 UV-I 0 W/m 1,4 C 2,8 km/h (1 Bft)
08.01.2018 03:00 3,6 C 85 % 1024,4 hPa 0,0 mm 0,6 km/h (0 Bft) NO 0,00 h 0,0 mm 0,0 UV-I 0 W/m 1,4 C 3,9 km/h (1 Bft)
08.01.2018 04:00 4,0 C 86 % 1024,3 hPa 0,0 mm 0,7 km/h (0 Bft) SO 0,00 h 0,0 mm 0,0 UV-I 0 W/m 1,9 C 3,9 km/h (1 Bft)
08.01.2018 05:00 4,6 C 84 % 1024,2 hPa 0,0 mm 2,5 km/h (1 Bft) SO 0,00 h 0,0 mm 0,0 UV-I 0 W/m 2,2 C 7,6 km/h (2 Bft)
08.01.2018 06:00 4,8 C 83 % 1024,2 hPa 0,0 mm 2,9 km/h (1 Bft) O-SO 0,00 h 0,0 mm 0,0 UV-I 0 W/m 2,2 C 7,6 km/h (2 Bft)
08.01.2018 07:00 4,9 C 83 % 1024,1 hPa 0,0 mm 4,8 km/h (1 Bft) O-SO 0,00 h 0,0 mm 0,0 UV-I 0 W/m 2,2 C 17,6 km/h (3 Bft)
08.01.2018 08:00 4,9 C 82 % 1024,1 hPa 0,0 mm 4,8 km/h (1 Bft) O-SO 0,00 h 0,0 mm 0,0 UV-I 0 W/m 2,1 C 12,2 km/h (2 Bft)
08.01.2018 09:00 4,7 C 83 % 1024,3 hPa 0,0 mm 8,2 km/h (2 Bft) O-SO 0,00 h 0,0 mm 0,0 UV-I 13 W/m 2,1 C 23,7 km/h (4 Bft)
08.01.2018 10:00 4,8 C 83 % 1024,3 hPa 0,0 mm 8,6 km/h (2 Bft) SO 0,00 h 0,0 mm 0,0 UV-I 31 W/m 2,1 C 22,9 km/h (4 Bft)
08.01.2018 11:00 4,9 C 83 % 1023,8 hPa 0,0 mm 6,3 km/h (2 Bft) SO 0,00 h 0,0 mm 0,0 UV-I 35 W/m 2,3 C 18,9 km/h (3 Bft)
08.01.2018 12:00 5,3 C 82 % 1023,0 hPa 0,0 mm 6,1 km/h (2 Bft) SO 0,00 h 0,0 mm 0,3 UV-I 61 W/m 2,6 C 19,1 km/h (3 Bft)
08.01.2018 13:00 6,0 C 81 % 1022,3 hPa 0,0 mm 7,3 km/h (2 Bft) S-SO 0,00 h 0,0 mm 0,2 UV-I 59 W/m 2,9 C 18,7 km/h (3 Bft)
08.01.2018 14:00 6,2 C 80 % 1021,8 hPa 0,0 mm 7,0 km/h (2 Bft) S-SO 0,00 h 0,0 mm 0,2 UV-I 73 W/m 3,0 C 19,6 km/h (3 Bft)
08.01.2018 15:00 6,5 C 78 % 1021,4 hPa 0,0 mm 9,1 km/h (2 Bft) S-SO 0,00 h 0,1 mm 0,0 UV-I 29 W/m 3,0 C 22,8 km/h (4 Bft)
08.01.2018 16:00 6,1 C 80 % 1021,1 hPa 0,0 mm 3,1 km/h (1 Bft) S-SO 0,00 h 0,0 mm 0,0 UV-I 12 W/m 2,9 C 7,9 km/h (2 Bft)
08.01.2018 17:00 5,4 C 83 % 1020,9 hPa 0,0 mm 2,2 km/h (1 Bft) S-SO 0,00 h 0,0 mm 0,0 UV-I 0 W/m 2,7 C 8,1 km/h (2 Bft)
08.01.2018 18:00 5,2 C 83 % 1020,5 hPa 0,0 mm 3,5 km/h (1 Bft) S-SO 0,00 h 0,0 mm 0,0 UV-I 0 W/m 2,6 C 10,1 km/h (2 Bft)
08.01.2018 19:00 4,9 C 83 % 1020,2 hPa 0,0 mm 5,7 km/h (1 Bft) S-SO 0,00 h 0,0 mm 0,0 UV-I 0 W/m 2,3 C 15,1 km/h (3 Bft)
08.01.2018 20:00 4,5 C 84 % 1019,7 hPa 0,0 mm 6,3 km/h (2 Bft) S-SO 0,00 h 0,0 mm 0,0 UV-I 0 W/m 2,0 C 16,7 km/h (3 Bft)
08.01.2018 21:00 4,4 C 85 % 1019,2 hPa 0,0 mm 7,2 km/h (2 Bft) S-SO 0,00 h 0,0 mm 0,0 UV-I 0 W/m 2,1 C 17,5 km/h (3 Bft)
08.01.2018 22:00 4,3 C 85 % 1018,8 hPa 0,0 mm 6,5 km/h (2 Bft) S-SO 0,00 h 0,0 mm 0,0 UV-I 0 W/m 2,0 C 15,3 km/h (3 Bft)
08.01.2018 23:00 4,4 C 85 % 1017,8 hPa 0,0 mm 5,7 km/h (1 Bft) S-SO 0,00 h 0,0 mm 0,0 UV-I 0 W/m 2,1 C 13,7 km/h (3 Bft)
09.01.2018 00:00 4,6 C 86 % 1017,0 hPa 0,0 mm 5,4 km/h (1 Bft) S-SO 0,00 h 0,0 mm 0,0 UV-I 0 W/m 2,4 C 13,4 km/h (3 Bft)
09.01.2018 01:00 4,8 C 86 % 1015,8 hPa 0,0 mm 6,3 km/h (2 Bft) S-SO 0,00 h 0,0 mm 0,0 UV-I 0 W/m 2,7 C 14,6 km/h (3 Bft)
09.01.2018 02:00 5,0 C 85 % 1014,8 hPa 0,0 mm 6,3 km/h (2 Bft) SO 0,00 h 0,0 mm 0,0 UV-I 0 W/m 2,7 C 13,9 km/h (3 Bft)
09.01.2018 03:00 4,9 C 86 % 1014,1 hPa 0,0 mm 6,5 km/h (2 Bft) S-SO 0,00 h 0,0 mm 0,0 UV-I 0 W/m 2,7 C 16,1 km/h (3 Bft)
09.01.2018 04:00 4,8 C 87 % 1013,4 hPa 0,0 mm 5,0 km/h (1 Bft) S-SO 0,00 h 0,0 mm 0,0 UV-I 0 W/m 2,8 C 11,8 km/h (2 Bft)
09.01.2018 05:00 4,8 C 87 % 1013,0 hPa 0,0 mm 6,5 km/h (2 Bft) S-SO 0,00 h 0,0 mm 0,0 UV-I 0 W/m 2,8 C 14,9 km/h (3 Bft)
09.01.2018 06:00 5,0 C 87 % 1012,2 hPa 0,0 mm 7,8 km/h (2 Bft) S-SO 0,00 h 0,0 mm 0,0 UV-I 0 W/m 2,9 C 17,3 km/h (3 Bft)
09.01.2018 07:00 4,9 C 87 % 1011,8 hPa 0,0 mm 5,0 km/h (1 Bft) S-SO 0,00 h 0,0 mm 0,0 UV-I 0 W/m 2,9 C 11,3 km/h (2 Bft)
09.01.2018 08:00 5,2 C 87 % 1011,7 hPa 0,0 mm 7,6 km/h (2 Bft) S-SO 0,00 h 0,0 mm 0,0 UV-I 6 W/m 3,2 C 20,9 km/h (4 Bft)
09.01.2018 09:00 5,5 C 86 % 1011,7 hPa 0,0 mm 6,1 km/h (2 Bft) S-SO 0,00 h 0,0 mm 0,0 UV-I 16 W/m 3,4 C 13,4 km/h (3 Bft)
09.01.2018 10:00 5,8 C 85 % 1011,5 hPa 0,0 mm 7,2 km/h (2 Bft) S-SO 0,00 h 0,0 mm 0,2 UV-I 53 W/m 3,5 C 17,0 km/h (3 Bft)
09.01.2018 11:00 6,1 C 85 % 1010,8 hPa 0,0 mm 7,1 km/h (2 Bft) S-SO 0,00 h 0,0 mm 0,1 UV-I 76 W/m 3,7 C 16,5 km/h (3 Bft)
09.01.2018 12:00 6,3 C 84 % 1010,3 hPa 0,0 mm 9,1 km/h (2 Bft) S-SO 0,00 h 0,1 mm 0,1 UV-I 76 W/m 3,8 C 20,6 km/h (4 Bft)
09.01.2018 13:00 6,6 C 84 % 1009,8 hPa 0,0 mm 7,8 km/h (2 Bft) S-SO 0,00 h 0,1 mm 0,1 UV-I 62 W/m 4,1 C 18,7 km/h (3 Bft)
09.01.2018 14:00 7,1 C 83 % 1009,4 hPa 0,0 mm 6,3 km/h (2 Bft) S-SO 0,50 h 0,0 mm 0,1 UV-I 117 W/m 4,5 C 15,3 km/h (3 Bft)
09.01.2018 15:00 7,6 C 82 % 1009,6 hPa 0,0 mm 6,1 km/h (2 Bft) S-SO 0,33 h 0,1 mm 0,0 UV-I 77 W/m 4,7 C 13,7 km/h (3 Bft)
09.01.2018 16:00 6,8 C 84 % 1009,6 hPa 0,0 mm 4,6 km/h (1 Bft) S-SO 0,00 h 0,1 mm 0,0 UV-I 12 W/m 4,2 C 10,6 km/h (2 Bft)
09.01.2018 17:00 5,8 C 87 % 1010,0 hPa 0,0 mm 3,7 km/h (1 Bft) S-SO 0,00 h 0,0 mm 0,0 UV-I 0 W/m 3,8 C 8,9 km/h (2 Bft)
09.01.2018 18:00 5,2 C 89 % 1009,9 hPa 0,0 mm 3,1 km/h (1 Bft) S-SO 0,00 h 0,0 mm 0,0 UV-I 0 W/m 3,5 C 7,5 km/h (2 Bft)
09.01.2018 19:00 5,0 C 90 % 1009,9 hPa 0,0 mm 3,7 km/h (1 Bft) S 0,00 h 0,0 mm 0,0 UV-I 0 W/m 3,5 C 9,4 km/h (2 Bft)
09.01.2018 20:00 4,9 C 90 % 1010,3 hPa 0,0 mm 4,0 km/h (1 Bft) S-SO 0,00 h 0,0 mm 0,0 UV-I 0 W/m 3,4 C 9,4 km/h (2 Bft)
09.01.2018 21:00 4,8 C 92 % 1010,5 hPa 0,0 mm 2,9 km/h (1 Bft) S-SO 0,00 h 0,0 mm 0,0 UV-I 0 W/m 3,5 C 8,6 km/h (2 Bft)
09.01.2018 22:00 5,4 C 92 % 1010,4 hPa 0,0 mm 4,4 km/h (1 Bft) S-SO 0,00 h 0,0 mm 0,0 UV-I 0 W/m 4,2 C 11,9 km/h (2 Bft)
09.01.2018 23:00 5,8 C 90 % 1010,3 hPa 0,0 mm 4,6 km/h (1 Bft) S-SO 0,00 h 0,0 mm 0,0 UV-I 0 W/m 4,3 C 11,7 km/h (2 Bft)
10.01.2018 00:00 6,2 C 90 % 1010,2 hPa 0,0 mm 2,9 km/h (1 Bft) S-SO 0,00 h 0,0 mm 0,0 UV-I 0 W/m 4,7 C 8,4 km/h (2 Bft)
10.01.2018 01:00 6,0 C 92 % 1010,0 hPa 0,0 mm 2,2 km/h (1 Bft) S 0,00 h 0,0 mm 0,0 UV-I 0 W/m 4,9 C 7,2 km/h (2 Bft)
10.01.2018 02:00 5,7 C 94 % 1009,8 hPa 0,0 mm 2,2 km/h (1 Bft) S-SO 0,00 h 0,0 mm 0,0 UV-I 0 W/m 4,9 C 4,6 km/h (1 Bft)
10.01.2018 03:00 5,8 C 96 % 1009,8 hPa 0,0 mm 3,5 km/h (1 Bft) S-SO 0,00 h 0,0 mm 0,0 UV-I 0 W/m 5,1 C 7,6 km/h (2 Bft)
10.01.2018 04:00 6,1 C 95 % 1009,4 hPa 0,0 mm 4,0 km/h (1 Bft) S 0,00 h 0,0 mm 0,0 UV-I 0 W/m 5,4 C 10,8 km/h (2 Bft)
10.01.2018 05:00 6,3 C 94 % 1009,2 hPa 0,0 mm 2,9 km/h (1 Bft) S-SO 0,00 h 0,0 mm 0,0 UV-I 0 W/m 5,4 C 8,9 km/h (2 Bft)
10.01.2018 06:00 6,4 C 94 % 1009,1 hPa 0,0 mm 2,9 km/h (1 Bft) S 0,00 h 0,0 mm 0,0 UV-I 0 W/m 5,5 C 7,7 km/h (2 Bft)
10.01.2018 07:00 6,6 C 94 % 1009,2 hPa 0,0 mm 3,3 km/h (1 Bft) S-SO 0,00 h 0,0 mm 0,0 UV-I 0 W/m 5,8 C 9,6 km/h (2 Bft)
10.01.2018 08:00 7,0 C 92 % 1009,4 hPa 0,0 mm 6,5 km/h (2 Bft) S 0,00 h 0,0 mm 0,0 UV-I 5 W/m 5,8 C 14,8 km/h (3 Bft)
10.01.2018 09:00 7,1 C 93 % 1009,5 hPa 0,0 mm 6,9 km/h (2 Bft) S-SO 0,00 h 0,0 mm 0,0 UV-I 17 W/m 6,0 C 14,6 km/h (3 Bft)
10.01.2018 10:00 7,3 C 92 % 1009,8 hPa 0,0 mm 4,8 km/h (1 Bft) S-SO 0,00 h 0,0 mm 0,0 UV-I 36 W/m 6,0 C 12,5 km/h (3 Bft)
10.01.2018 11:00 8,0 C 87 % 1009,8 hPa 0,0 mm 4,8 km/h (1 Bft) S-SO 0,00 h 0,0 mm 0,3 UV-I 88 W/m 6,0 C 13,4 km/h (3 Bft)
10.01.2018 12:00 8,6 C 84 % 1009,3 hPa 0,0 mm 5,4 km/h (1 Bft) S-SO 0,08 h 0,1 mm 0,2 UV-I 100 W/m 5,9 C 13,1 km/h (3 Bft)
10.01.2018 13:00 9,1 C 82 % 1008,7 hPa 0,0 mm 5,6 km/h (1 Bft) S-SO 0,00 h 0,1 mm 0,2 UV-I 104 W/m 6,1 C 14,1 km/h (3 Bft)
10.01.2018 14:00 9,4 C 81 % 1008,5 hPa 0,0 mm 5,9 km/h (2 Bft) S-SO 0,25 h 0,1 mm 0,1 UV-I 113 W/m 6,2 C 14,9 km/h (3 Bft)
10.01.2018 15:00 9,1 C 81 % 1008,8 hPa 0,0 mm 3,3 km/h (1 Bft) S 0,00 h 0,1 mm 0,0 UV-I 35 W/m 6,0 C 8,2 km/h (2 Bft)
10.01.2018 16:00 8,8 C 78 % 1009,0 hPa 0,0 mm 4,8 km/h (1 Bft) S-SW 0,00 h 0,0 mm 0,0 UV-I 11 W/m 5,2 C 11,2 km/h (2 Bft)
10.01.2018 17:00 8,9 C 76 % 1009,1 hPa 0,0 mm 4,6 km/h (1 Bft) S-SW 0,00 h 0,0 mm 0,0 UV-I 0 W/m 5,0 C 11,3 km/h (2 Bft)
10.01.2018 18:00 9,0 C 75 % 1009,4 hPa 0,0 mm 5,9 km/h (2 Bft) S-SW 0,00 h 0,0 mm 0,0 UV-I 0 W/m 4,8 C 12,7 km/h (3 Bft)
10.01.2018 19:00 8,5 C 79 % 1009,7 hPa 0,0 mm 2,4 km/h (1 Bft) S-SW 0,00 h 0,0 mm 0,0 UV-I 0 W/m 5,1 C 7,2 km/h (2 Bft)
10.01.2018 20:00 8,0 C 82 % 1009,9 hPa 0,0 mm 2,2 km/h (1 Bft) S-SW 0,00 h 0,0 mm 0,0 UV-I 0 W/m 5,2 C 7,5 km/h (2 Bft)
10.01.2018 21:00 7,7 C 85 % 1010,3 hPa 0,0 mm 1,5 km/h (1 Bft) S-SW 0,00 h 0,0 mm 0,0 UV-I 0 W/m 5,3 C 3,6 km/h (1 Bft)
10.01.2018 22:00 7,3 C 86 % 1010,4 hPa 0,0 mm 1,7 km/h (1 Bft) S-SW 0,00 h 0,0 mm 0,0 UV-I 0 W/m 5,1 C 3,8 km/h (1 Bft)
10.01.2018 23:00 7,0 C 89 % 1010,6 hPa 0,0 mm 0,6 km/h (0 Bft) S-SW 0,00 h 0,0 mm 0,0 UV-I 0 W/m 5,3 C 1,9 km/h (1 Bft)
11.01.2018 00:00 6,6 C 92 % 1011,0 hPa 0,2 mm 0,7 km/h (0 Bft) S-SW 0,00 h 0,0 mm 0,0 UV-I 0 W/m 5,4 C 1,7 km/h (1 Bft)
11.01.2018 01:00 6,6 C 94 % 1011,0 hPa 0,0 mm 0,2 km/h (0 Bft) N 0,00 h 0,0 mm 0,0 UV-I 0 W/m 5,7 C 1,2 km/h (1 Bft)
11.01.2018 02:00 6,3 C 95 % 1011,4 hPa 0,0 mm 0,6 km/h (0 Bft) S-SW 0,00 h 0,0 mm 0,0 UV-I 0 W/m 5,6 C 3,6 km/h (1 Bft)
11.01.2018 03:00 6,4 C 95 % 1011,7 hPa 0,0 mm 0,2 km/h (0 Bft) S-SW 0,00 h 0,0 mm 0,0 UV-I 0 W/m 5,7 C 1,9 km/h (1 Bft)
11.01.2018 04:00 6,3 C 95 % 1012,0 hPa 0,0 mm 0,0 km/h (0 Bft) N 0,00 h 0,0 mm 0,0 UV-I 0 W/m 5,5 C 0,3 km/h (0 Bft)
11.01.2018 05:00 6,0 C 96 % 1012,3 hPa 0,0 mm 0,0 km/h (0 Bft) N 0,00 h 0,0 mm 0,0 UV-I 0 W/m 5,4 C 0,0 km/h (0 Bft)
11.01.2018 06:00 5,5 C 96 % 1012,9 hPa 0,0 mm 0,0 km/h (0 Bft) N 0,00 h 0,0 mm 0,0 UV-I 0 W/m 4,9 C 0,7 km/h (0 Bft)
11.01.2018 07:00 5,5 C 96 % 1013,5 hPa 0,0 mm 0,0 km/h (0 Bft) N 0,00 h 0,0 mm 0,0 UV-I 0 W/m 4,9 C 0,5 km/h (0 Bft)
11.01.2018 08:00 5,5 C 97 % 1014,2 hPa 0,0 mm 0,0 km/h (0 Bft) N 0,00 h 0,0 mm 0,0 UV-I 5 W/m 5,0 C 0,0 km/h (0 Bft)
11.01.2018 09:00 5,9 C 97 % 1015,0 hPa 0,0 mm 0,2 km/h (0 Bft) S-SW 0,00 h 0,0 mm 0,0 UV-I 18 W/m 5,5 C 0,6 km/h (0 Bft)
11.01.2018 10:00 6,3 C 97 % 1015,8 hPa 0,0 mm 0,4 km/h (0 Bft) W 0,00 h 0,0 mm 0,4 UV-I 42 W/m 5,8 C 1,5 km/h (1 Bft)
11.01.2018 11:00 7,0 C 96 % 1016,3 hPa 0,0 mm 0,3 km/h (0 Bft) W 0,00 h 0,0 mm 0,2 UV-I 99 W/m 6,4 C 1,1 km/h (1 Bft)
11.01.2018 12:00 7,8 C 92 % 1016,5 hPa 0,0 mm 0,0 km/h (0 Bft) W-NW 0,00 h 0,1 mm 0,1 UV-I 95 W/m 6,5 C 0,0 km/h (0 Bft)
11.01.2018 13:00 8,2 C 89 % 1016,5 hPa 0,0 mm 0,2 km/h (0 Bft) N 0,00 h 0,1 mm 0,1 UV-I 78 W/m 6,6 C 0,7 km/h (0 Bft)
11.01.2018 14:00 8,3 C 90 % 1017,0 hPa 0,0 mm 0,0 km/h (0 Bft) N 0,00 h 0,0 mm 0,1 UV-I 47 W/m 6,8 C 0,4 km/h (0 Bft)
11.01.2018 15:00 8,2 C 90 % 1017,7 hPa 0,0 mm 0,0 km/h (0 Bft) N 0,00 h 0,0 mm 0,0 UV-I 33 W/m 6,7 C 0,0 km/h (0 Bft)
11.01.2018 16:00 7,9 C 90 % 1018,4 hPa 0,0 mm 0,0 km/h (0 Bft) N 0,00 h 0,0 mm 0,0 UV-I 9 W/m 6,4 C 0,2 km/h (0 Bft)
11.01.2018 17:00 7,2 C 93 % 1019,1 hPa 0,0 mm 0,0 km/h (0 Bft) N 0,00 h 0,0 mm 0,0 UV-I 0 W/m 6,1 C 0,2 km/h (0 Bft)
11.01.2018 18:00 7,2 C 93 % 1019,6 hPa 0,0 mm 0,0 km/h (0 Bft) N 0,00 h 0,0 mm 0,0 UV-I 0 W/m 6,2 C 0,2 km/h (0 Bft)
11.01.2018 19:00 6,5 C 92 % 1020,2 hPa 0,0 mm 0,0 km/h (0 Bft) N 0,00 h 0,0 mm 0,0 UV-I 0 W/m 5,4 C 0,0 km/h (0 Bft)
11.01.2018 20:00 5,7 C 95 % 1020,9 hPa 0,0 mm 0,3 km/h (0 Bft) W-NW 0,00 h 0,0 mm 0,0 UV-I 0 W/m 5,0 C 2,0 km/h (1 Bft)
11.01.2018 21:00 5,9 C 96 % 1021,4 hPa 0,0 mm 0,5 km/h (0 Bft) W-NW 0,00 h 0,0 mm 0,0 UV-I 0 W/m 5,3 C 1,8 km/h (1 Bft)
11.01.2018 22:00 5,9 C 96 % 1021,7 hPa 0,0 mm 0,8 km/h (0 Bft) W-NW 0,00 h 0,0 mm 0,0 UV-I 0 W/m 5,4 C 4,1 km/h (1 Bft)
11.01.2018 23:00 5,9 C 96 % 1022,4 hPa 0,0 mm 1,1 km/h (0 Bft) NW 0,00 h 0,0 mm 0,0 UV-I 0 W/m 5,3 C 3,3 km/h (1 Bft)
12.01.2018 00:00 5,8 C 97 % 1022,8 hPa 0,0 mm 0,4 km/h (0 Bft) N 0,00 h 0,0 mm 0,0 UV-I 0 W/m 5,4 C 4,1 km/h (1 Bft)
12.01.2018 01:00 5,6 C 97 % 1023,1 hPa 0,0 mm 0,1 km/h (0 Bft) N 0,00 h 0,0 mm 0,0 UV-I 0 W/m 5,1 C 1,8 km/h (1 Bft)
12.01.2018 02:00 5,3 C 96 % 1023,3 hPa 0,0 mm 0,2 km/h (0 Bft) N 0,00 h 0,0 mm 0,0 UV-I 0 W/m 4,8 C 2,0 km/h (1 Bft)
12.01.2018 03:00 5,1 C 97 % 1023,9 hPa 0,0 mm 0,1 km/h (0 Bft) N 0,00 h 0,0 mm 0,0 UV-I 0 W/m 4,7 C 0,9 km/h (0 Bft)
12.01.2018 04:00 4,9 C 97 % 1024,2 hPa 0,0 mm 0,4 km/h (0 Bft) NW 0,00 h 0,0 mm 0,0 UV-I 0 W/m 4,4 C 3,3 km/h (1 Bft)
12.01.2018 05:00 4,7 C 97 % 1024,3 hPa 0,0 mm 0,1 km/h (0 Bft) N 0,00 h 0,0 mm 0,0 UV-I 0 W/m 4,3 C 0,9 km/h (0 Bft)
12.01.2018 06:00 4,4 C 97 % 1024,4 hPa 0,0 mm 0,0 km/h (0 Bft) N 0,00 h 0,0 mm 0,0 UV-I 0 W/m 4,0 C 0,7 km/h (0 Bft)
12.01.2018 07:00 4,4 C 98 % 1024,8 hPa 0,0 mm 0,2 km/h (0 Bft) N 0,00 h 0,0 mm 0,0 UV-I 0 W/m 4,1 C 1,5 km/h (1 Bft)
12.01.2018 08:00 4,4 C 98 % 1025,4 hPa 0,0 mm 0,0 km/h (0 Bft) N 0,00 h 0,0 mm 0,0 UV-I 3 W/m 4,1 C 0,0 km/h (0 Bft)
12.01.2018 09:00 4,4 C 98 % 1025,7 hPa 0,0 mm 0,1 km/h (0 Bft) N 0,00 h 0,0 mm 0,0 UV-I 10 W/m 4,1 C 0,9 km/h (0 Bft)
12.01.2018 10:00 4,6 C 98 % 1026,3 hPa 0,0 mm 0,1 km/h (0 Bft) N 0,00 h 0,0 mm 0,0 UV-I 22 W/m 4,3 C 1,8 km/h (1 Bft)
12.01.2018 11:00 4,7 C 98 % 1026,5 hPa 0,0 mm 1,2 km/h (1 Bft) W-NW 0,00 h 0,0 mm 0,0 UV-I 32 W/m 4,4 C 4,4 km/h (1 Bft)
12.01.2018 12:00 4,8 C 98 % 1026,3 hPa 0,0 mm 0,4 km/h (0 Bft) W-NW 0,00 h 0,0 mm 0,0 UV-I 44 W/m 4,5 C 2,4 km/h (1 Bft)
12.01.2018 13:00 5,0 C 97 % 1026,1 hPa 0,0 mm 0,4 km/h (0 Bft) W-NW 0,00 h 0,0 mm 0,0 UV-I 37 W/m 4,5 C 2,4 km/h (1 Bft)
12.01.2018 14:00 5,1 C 97 % 1026,0 hPa 0,0 mm 0,2 km/h (0 Bft) N 0,00 h 0,0 mm 0,0 UV-I 31 W/m 4,6 C 0,9 km/h (0 Bft)
12.01.2018 15:00 5,3 C 96 % 1026,2 hPa 0,0 mm 0,1 km/h (0 Bft) N 0,00 h 0,0 mm 0,0 UV-I 18 W/m 4,7 C 0,6 km/h (0 Bft)
12.01.2018 16:00 5,3 C 96 % 1026,4 hPa 0,0 mm 0,1 km/h (0 Bft) N 0,00 h 0,0 mm 0,0 UV-I 7 W/m 4,7 C 0,4 km/h (0 Bft)
12.01.2018 17:00 5,3 C 96 % 1026,5 hPa 0,0 mm 0,2 km/h (0 Bft) N 0,00 h 0,0 mm 0,0 UV-I 0 W/m 4,7 C 2,0 km/h (1 Bft)
12.01.2018 18:00 5,3 C 96 % 1026,5 hPa 0,0 mm 0,1 km/h (0 Bft) N 0,00 h 0,0 mm 0,0 UV-I 0 W/m 4,7 C 0,6 km/h (0 Bft)
12.01.2018 19:00 5,3 C 96 % 1026,5 hPa 0,0 mm 0,0 km/h (0 Bft) N 0,00 h 0,0 mm 0,0 UV-I 0 W/m 4,7 C 0,0 km/h (0 Bft)
12.01.2018 20:00 5,3 C 96 % 1026,7 hPa 0,0 mm 0,0 km/h (0 Bft) N 0,00 h 0,0 mm 0,0 UV-I 0 W/m 4,7 C 0,0 km/h (0 Bft)
12.01.2018 21:00 5,2 C 96 % 1027,0 hPa 0,0 mm 0,0 km/h (0 Bft) N 0,00 h 0,0 mm 0,0 UV-I 0 W/m 4,6 C 0,0 km/h (0 Bft)
12.01.2018 22:00 5,4 C 95 % 1026,9 hPa 0,0 mm 0,0 km/h (0 Bft) N 0,00 h 0,0 mm 0,0 UV-I 0 W/m 4,7 C 0,0 km/h (0 Bft)
12.01.2018 23:00 5,2 C 96 % 1026,9 hPa 0,0 mm 0,0 km/h (0 Bft) N 0,00 h 0,0 mm 0,0 UV-I 0 W/m 4,6 C 0,2 km/h (0 Bft)
13.01.2018 00:00 5,0 C 96 % 1026,7 hPa 0,0 mm 0,0 km/h (0 Bft) N 0,00 h 0,0 mm 0,0 UV-I 0 W/m 4,4 C 0,0 km/h (0 Bft)
13.01.2018 01:00 4,9 C 96 % 1026,4 hPa 0,0 mm 0,0 km/h (0 Bft) N 0,00 h 0,0 mm 0,0 UV-I 0 W/m 4,3 C 0,0 km/h (0 Bft)
13.01.2018 02:00 4,9 C 97 % 1026,1 hPa 0,0 mm 0,3 km/h (0 Bft) S 0,00 h 0,0 mm 0,0 UV-I 0 W/m 4,4 C 1,8 km/h (1 Bft)
13.01.2018 03:00 5,0 C 97 % 1025,9 hPa 0,0 mm 0,5 km/h (0 Bft) N 0,00 h 0,0 mm 0,0 UV-I 0 W/m 4,6 C 3,5 km/h (1 Bft)
13.01.2018 04:00 5,1 C 97 % 1025,6 hPa 0,0 mm 0,6 km/h (0 Bft) S 0,00 h 0,0 mm 0,0 UV-I 0 W/m 4,7 C 3,8 km/h (1 Bft)
13.01.2018 05:00 5,2 C 96 % 1025,3 hPa 0,0 mm 1,8 km/h (1 Bft) S 0,00 h 0,0 mm 0,0 UV-I 0 W/m 4,7 C 5,7 km/h (1 Bft)
13.01.2018 06:00 5,4 C 95 % 1025,1 hPa 0,0 mm 3,7 km/h (1 Bft) S-SO 0,00 h 0,0 mm 0,0 UV-I 0 W/m 4,7 C 9,4 km/h (2 Bft)
13.01.2018 07:00 5,6 C 94 % 1025,1 hPa 0,0 mm 4,6 km/h (1 Bft) S-SO 0,00 h 0,0 mm 0,0 UV-I 0 W/m 4,7 C 12,0 km/h (2 Bft)
13.01.2018 08:00 5,9 C 89 % 1025,1 hPa 0,0 mm 7,8 km/h (2 Bft) S-SO 0,00 h 0,0 mm 0,0 UV-I 6 W/m 4,2 C 18,9 km/h (3 Bft)
13.01.2018 09:00 6,0 C 86 % 1025,3 hPa 0,0 mm 9,3 km/h (2 Bft) S-SO 0,00 h 0,0 mm 0,0 UV-I 16 W/m 3,9 C 23,2 km/h (4 Bft)
13.01.2018 10:00 5,8 C 83 % 1025,6 hPa 0,0 mm 12,0 km/h (2 Bft) S-SO 0,00 h 0,0 mm 0,0 UV-I 28 W/m 3,2 C 29,7 km/h (5 Bft)
13.01.2018 11:00 5,5 C 82 % 1025,7 hPa 0,0 mm 11,3 km/h (2 Bft) S-SO 0,00 h 0,0 mm 0,3 UV-I 70 W/m 2,6 C 26,3 km/h (4 Bft)
13.01.2018 12:00 6,0 C 80 % 1025,3 hPa 0,0 mm 8,2 km/h (2 Bft) S 0,00 h 0,1 mm 0,3 UV-I 86 W/m 2,8 C 19,4 km/h (3 Bft)
13.01.2018 13:00 6,6 C 76 % 1024,6 hPa 0,0 mm 11,0 km/h (2 Bft) S-SO 0,00 h 0,1 mm 0,3 UV-I 127 W/m 2,6 C 26,6 km/h (4 Bft)
13.01.2018 14:00 7,1 C 70 % 1024,1 hPa 0,0 mm 11,1 km/h (2 Bft) S-SO 0,58 h 0,1 mm 0,2 UV-I 160 W/m 2,1 C 29,6 km/h (5 Bft)
13.01.2018 15:00 6,6 C 72 % 1023,7 hPa 0,0 mm 8,0 km/h (2 Bft) S-SO 0,00 h 0,1 mm 0,1 UV-I 54 W/m 1,8 C 21,5 km/h (4 Bft)
13.01.2018 16:00 6,2 C 72 % 1023,5 hPa 0,0 mm 8,0 km/h (2 Bft) S-SO 0,00 h 0,1 mm 0,0 UV-I 12 W/m 1,5 C 20,5 km/h (4 Bft)
13.01.2018 17:00 5,8 C 72 % 1023,3 hPa 0,0 mm 6,8 km/h (2 Bft) S-SO 0,00 h 0,0 mm 0,0 UV-I 0 W/m 1,2 C 18,5 km/h (3 Bft)
13.01.2018 18:00 5,6 C 72 % 1023,1 hPa 0,0 mm 7,6 km/h (2 Bft) S-SO 0,00 h 0,0 mm 0,0 UV-I 0 W/m 1,0 C 21,3 km/h (4 Bft)
13.01.2018 19:00 5,7 C 72 % 1022,9 hPa 0,2 mm 6,8 km/h (2 Bft) S-SO 0,00 h 0,0 mm 0,0 UV-I 0 W/m 1,0 C 18,5 km/h (3 Bft)
13.01.2018 20:00 5,8 C 72 % 1022,7 hPa 0,0 mm 7,6 km/h (2 Bft) S-SO 0,00 h 0,0 mm 0,0 UV-I 0 W/m 1,1 C 20,9 km/h (4 Bft)
13.01.2018 21:00 5,7 C 71 % 1022,6 hPa 0,0 mm 7,1 km/h (2 Bft) S-SO 0,00 h 0,0 mm 0,0 UV-I 0 W/m 1,0 C 20,4 km/h (4 Bft)
13.01.2018 22:00 5,6 C 73 % 1022,2 hPa 0,0 mm 6,9 km/h (2 Bft) S-SO 0,00 h 0,0 mm 0,0 UV-I 0 W/m 1,1 C 17,9 km/h (3 Bft)
13.01.2018 23:00 5,5 C 73 % 1022,1 hPa 0,0 mm 7,6 km/h (2 Bft) SO 0,00 h 0,0 mm 0,0 UV-I 0 W/m 1,1 C 21,5 km/h (4 Bft)
14.01.2018 00:00 5,5 C 74 % 1021,7 hPa 0,0 mm 10,0 km/h (2 Bft) S-SO 0,00 h 0,0 mm 0,0 UV-I 0 W/m 1,1 C 30,2 km/h (5 Bft)
14.01.2018 01:00 5,3 C 76 % 1021,4 hPa 0,0 mm 8,7 km/h (2 Bft) S-SO 0,00 h 0,0 mm 0,0 UV-I 0 W/m 1,3 C 23,9 km/h (4 Bft)
14.01.2018 02:00 5,0 C 76 % 1021,2 hPa 0,0 mm 9,0 km/h (2 Bft) SO 0,00 h 0,0 mm 0,0 UV-I 0 W/m 1,1 C 23,7 km/h (4 Bft)
14.01.2018 03:00 4,7 C 77 % 1021,1 hPa 0,0 mm 5,8 km/h (2 Bft) SO 0,00 h 0,0 mm 0,0 UV-I 0 W/m 1,1 C 17,4 km/h (3 Bft)
14.01.2018 04:00 4,5 C 78 % 1021,1 hPa 0,0 mm 7,7 km/h (2 Bft) S-SO 0,00 h 0,0 mm 0,0 UV-I 0 W/m 0,9 C 21,1 km/h (4 Bft)
14.01.2018 05:00 4,3 C 78 % 1020,9 hPa 0,0 mm 7,2 km/h (2 Bft) SO 0,00 h 0,0 mm 0,0 UV-I 0 W/m 0,8 C 17,9 km/h (3 Bft)
14.01.2018 06:00 4,0 C 79 % 1020,8 hPa 0,0 mm 8,2 km/h (2 Bft) S-SO 0,00 h 0,0 mm 0,0 UV-I 0 W/m 0,6 C 20,5 km/h (4 Bft)
14.01.2018 07:00 3,9 C 79 % 1020,8 hPa 0,0 mm 7,9 km/h (2 Bft) S-SO 0,00 h 0,0 mm 0,0 UV-I 0 W/m 0,6 C 19,6 km/h (3 Bft)
14.01.2018 08:00 3,8 C 78 % 1020,9 hPa 0,0 mm 9,8 km/h (2 Bft) SO 0,00 h 0,0 mm 0,0 UV-I 8 W/m 0,4 C 24,2 km/h (4 Bft)
14.01.2018 09:00 3,4 C 79 % 1021,4 hPa 0,0 mm 10,0 km/h (2 Bft) S-SO 0,25 h 0,0 mm 0,2 UV-I 58 W/m 0,1 C 25,7 km/h (4 Bft)
14.01.2018 10:00 3,4 C 79 % 1021,5 hPa 0,0 mm 11,7 km/h (2 Bft) SO 0,83 h 0,0 mm 0,2 UV-I 139 W/m 0,1 C 31,3 km/h (5 Bft)
14.01.2018 11:00 4,2 C 76 % 1021,2 hPa 0,0 mm 13,1 km/h (3 Bft) S-SO 0,75 h 0,1 mm 0,2 UV-I 192 W/m 0,3 C 32,4 km/h (5 Bft)
14.01.2018 12:00 4,8 C 74 % 1021,0 hPa 0,0 mm 11,4 km/h (2 Bft) S-SO 0,67 h 0,1 mm 0,2 UV-I 182 W/m 0,4 C 29,3 km/h (5 Bft)
14.01.2018 13:00 5,1 C 72 % 1020,8 hPa 0,0 mm 10,8 km/h (2 Bft) S-SO 0,25 h 0,1 mm 0,2 UV-I 163 W/m 0,5 C 28,1 km/h (4 Bft)
14.01.2018 14:00 5,6 C 71 % 1020,5 hPa 0,0 mm 8,2 km/h (2 Bft) S-SO 0,92 h 0,1 mm 0,1 UV-I 178 W/m 0,7 C 21,3 km/h (4 Bft)
14.01.2018 15:00 4,5 C 74 % 1020,5 hPa 0,0 mm 9,6 km/h (2 Bft) S-SO 0,08 h 0,1 mm 0,1 UV-I 46 W/m 0,4 C 22,0 km/h (4 Bft)
14.01.2018 16:00 3,9 C 78 % 1020,6 hPa 0,0 mm 7,5 km/h (2 Bft) S 0,08 h 0,0 mm 0,0 UV-I 15 W/m 0,4 C 19,1 km/h (3 Bft)
14.01.2018 17:00 3,9 C 78 % 1020,5 hPa 0,0 mm 8,0 km/h (2 Bft) S-SO 0,00 h 0,0 mm 0,0 UV-I 0 W/m 0,5 C 20,4 km/h (4 Bft)
14.01.2018 18:00 3,8 C 79 % 1020,4 hPa 0,0 mm 8,2 km/h (2 Bft) SO 0,00 h 0,0 mm 0,0 UV-I 0 W/m 0,5 C 21,8 km/h (4 Bft)
14.01.2018 19:00 3,7 C 79 % 1020,3 hPa 0,0 mm 9,1 km/h (2 Bft) S-SO 0,00 h 0,0 mm 0,0 UV-I 0 W/m 0,4 C 23,9 km/h (4 Bft)
14.01.2018 20:00 3,3 C 81 % 1020,3 hPa 0,0 mm 8,4 km/h (2 Bft) S-SO 0,00 h 0,0 mm 0,0 UV-I 0 W/m 0,3 C 19,3 km/h (3 Bft)
14.01.2018 21:00 2,6 C 83 % 1020,1 hPa 0,0 mm 8,5 km/h (2 Bft) S-SO 0,00 h 0,0 mm 0,0 UV-I 0 W/m -0,0 C 19,4 km/h (3 Bft)
14.01.2018 22:00 2,1 C 85 % 1019,7 hPa 0,0 mm 7,9 km/h (2 Bft) S-SO 0,00 h 0,0 mm 0,0 UV-I 0 W/m -0,3 C 18,0 km/h (3 Bft)
14.01.2018 23:00 1,8 C 86 % 1019,4 hPa 0,0 mm 7,1 km/h (2 Bft) S 0,00 h 0,0 mm 0,0 UV-I 0 W/m -0,3 C 17,0 km/h (3 Bft)
Min-Datum _ 14.01.18 13.01.18 10.01.18 - 08.01.18 - - - - - 14.01.18 08.01.18
_ Min-Zeit 23:05 14:30 14:45 - 01:40 - - - - - 23:10 01:40
Minimum _ 1,8 C 69 % 1008,4 hPa - 0,0 km/h (0 Bft) - - - - - -0,4 C 0,0 km/h (0 Bft)
Max-Datum _ 10.01.18 12.01.18 12.01.18 11.01.18 13.01.18 - 09.01.18 14.01.18 11.01.18 13.01.18 11.01.18 14.01.18
_ Max-Zeit 14:45 06:45 21:15 00:30 13:55 - 14:30 13:00 10:50 14:15 14:25 00:15
Maximum _ 9,9 C 98 % 1027,0 hPa 0,2 mm 15,9 km/h
S-SO (3 Bft)
- 0,08 h 0,1 mm 0,4 UV-I 273 W/m 6,9 C 42,2 km/h
SO (6 Bft)
Durchschnitt _ 5,6 C 87 % 1018,6 hPa #0,4 mm 4,2 km/h (1 Bft) S-SO #5:35 h #2,411 mm 0,2 UV-I 56 W/m 3,5 C 11,1 km/h (2 Bft)



© 1998 - 2018 www.pulheimwetter.de